EW9581 Weather Reports


Display with metric or nautical units.
time (UTC)temp
F
wind
direction
speed
MPH
gust
MPH
rain 1hr
in
rain 24hr
in
rain mn
in
humidity
%
barometer
mb
20260502163048 56 117 0.0 1.0 0.00 0.01 0.01 72 1016.0
20260502161539 55 169 0.0 1.0 0.00 0.01 0.01 73 1016.2
20260502151557 55 110 0.0 1.0 0.01 0.01 0.01 71 1015.7
20260502123005 53 148 0.0 1.0 0.00 0.00 0.00 69 1015.0
20260502121505 52 143 0.0 1.0 0.00 0.00 0.00 68 1014.7
20260502114505 52 95 0.0 0.0 0.00 0.00 0.00 64 1014.8
20260502113004 52 94 0.0 0.0 0.00 0.00 0.00 62 1014.7
20260502111503 52 94 0.0 0.0 0.00 0.00 0.00 65 1014.9
20260502110004 52 146 0.0 0.0 0.00 0.00 0.00 68 1014.9
20260502104502 52 146 0.0 1.0 0.00 0.00 0.00 68 1014.8
20260502103002 53 146 0.0 1.0 0.00 0.00 0.00 67 1015.1
20260502101619 52 146 0.0 3.0 0.00 0.00 0.00 63 1015.0
20260502100104 52 124 0.0 1.0 0.00 0.00 0.00 53 1015.0
20260502090113 50 124 0.0 0.0 0.00 0.00 0.00 42 1014.6
20260502064556 50 124 0.0 0.0 0.00 0.00 0.00 48 1014.3
20260502063050 51 124 0.0 0.0 0.00 0.00 0.00 50 1014.3
20260502061541 51 124 0.0 0.0 0.00 0.00 0.00 53 1014.3
20260502060041 51 124 0.0 0.0 0.00 0.00 0.00 52 1014.2
20260502054538 51 124 0.0 0.0 0.00 0.00 0.00 53 1014.4
20260502053036 51 124 0.0 0.0 0.00 0.00 0.00 53 1014.4
20260502051534 51 124 0.0 0.0 0.00 0.00 0.00 54 1014.6
20260502050039 51 124 0.0 0.0 0.00 0.00 0.00 54 1014.7
20260502044532 51 124 0.0 0.0 0.00 0.00 0.00 55 1014.8
20260502043029 51 124 0.0 0.0 0.00 0.00 0.00 60 1014.9
20260502041528 51 124 0.0 0.0 0.00 0.00 0.00 64 1015.0
20260502040023 51 124 0.0 0.0 0.00 0.00 0.00 67 1015.1
20260502034524 51 124 0.0 0.0 0.00 0.00 0.00 69 1015.3
20260502033022 52 124 0.0 0.0 0.00 0.00 0.00 72 1015.1
20260502031521 52 124 0.0 0.0 0.00 0.00 0.00 73 1015.1
20260502030021 52 113 0.0 1.0 0.00 0.00 0.00 74 1015.1
20260502024520 52 129 0.0 0.0 0.00 0.00 0.00 74 1015.2
20260502023018 52 132 0.0 0.0 0.00 0.00 0.00 75 1015.2
20260502021517 52 132 0.0 0.0 0.00 0.00 0.00 75 1015.3
20260502020016 53 134 0.0 1.0 0.00 0.00 0.00 76 1015.3
20260502014516 53 125 0.0 2.0 0.00 0.00 0.00 76 1015.0
20260502013015 53 105 0.0 0.0 0.00 0.00 0.00 76 1015.1
20260502011515 52 105 0.0 1.0 0.00 0.00 0.00 76 1015.0
20260502010015 53 124 0.0 0.0 0.00 0.00 0.00 77 1014.7
20260502004514 53 124 0.0 0.0 0.00 0.00 0.00 76 1014.7
20260502003012 54 124 0.0 1.0 0.00 0.00 0.00 76 1014.5
20260502001518 55 120 0.0 2.0 0.00 0.00 0.00 75 1014.4
20260502000012 56 116 0.0 1.0 0.00 0.00 0.00 75 1014.2
20260501234511 57 120 0.0 2.0 0.00 0.00 0.00 73 1014.3
20260501233011 58 118 0.0 2.0 0.00 0.00 0.00 72 1014.3
20260501231510 58 118 0.0 4.0 0.00 0.00 0.00 70 1014.2
20260501230011 59 165 0.0 5.0 0.00 0.00 0.00 69 1014.2
20260501224510 59 118 1.0 5.0 0.00 0.00 0.00 68 1014.3
20260501223006 60 117 3.0 7.0 0.00 0.00 0.00 66 1014.5
20260501221511 60 110 0.0 6.0 0.00 0.00 0.00 65 1014.6
20260501220016 60 105 1.0 7.0 0.00 0.00 0.00 63 1014.7
20260501214507 61 129 1.0 6.0 0.00 0.00 0.00 64 1014.8
20260501213003 61 126 1.0 6.0 0.00 0.00 0.00 63 1014.8
20260501211505 61 113 1.0 6.0 0.00 0.00 0.00 63 1014.8
20260501210003 63 127 3.0 9.0 0.00 0.00 0.00 58 1014.7
20260501204501 66 156 3.0 11.0 0.00 0.00 0.00 51 1014.6
20260501203102 66 117 2.0 7.0 0.00 0.00 0.00 49 1014.5
20260501201600 67 122 0.0 6.0 0.00 0.00 0.00 49 1014.5
20260501200058 66 130 1.0 6.0 0.00 0.00 0.00 48 1014.7
20260501194602 67 129 2.0 7.0 0.00 0.00 0.00 44 1015.1
20260501193057 67 137 2.0 9.0 0.00 0.00 0.00 44 1015.2
20260501191556 69 101 1.0 7.0 0.00 0.00 0.00 43 1015.4
20260501190054 70 124 0.0 5.0 0.00 0.00 0.00 44 1015.6
20260501184555 69 126 0.0 6.0 0.00 0.00 0.00 44 1016.0
20260501183054 67 123 2.0 6.0 0.00 0.00 0.00 44 1016.3
20260501181557 67 130 2.0 6.0 0.00 0.00 0.00 43 1016.3
20260501180053 68 131 1.0 7.0 0.00 0.00 0.00 44 1016.4
20260501174552 70 125 2.0 7.0 0.00 0.00 0.00 41 1016.3